• In Russia
  • List of Countries
  • For 7 days
  • Water Temperature
  • Satellite Maps
  • Weather Map
  • Weather Widgets
  • user-avatar
    Login

    Hourly Weather Mingachevir

    Today, 29 April, Saturday

    Time Temperature Precipitation Wind Pressure Humidity
    00:00 +13°C° 0 mm 1 mps 758 mmHg 75%
    01:00 +12°C° 0 mm 1 mps 757 mmHg 78%
    02:00 +10°C° 0 mm 0 mps 757 mmHg 81%
    03:00 +11°C° 0 mm 1 mps 756 mmHg 86%
    04:00 +11°C° 0 mm 0 mps 756 mmHg 84%
    05:00 +12°C° 0 mm 0 mps 756 mmHg 81%
    06:00 +13°C° 0 mm 0 mps 756 mmHg 79%
    07:00 +16°C° 0 mm 1 mps 756 mmHg 71%
    08:00 +19°C° 0 mm 1 mps 755 mmHg 62%
    09:00 +19°C° 0 mm 2 mps 755 mmHg 54%
    10:00 +20°C° 0 mm 2 mps 755 mmHg 50%
    11:00 +23°C° 0 mm 2 mps 755 mmHg 47%
    12:00 +24°C° 0 mm 3 mps 754 mmHg 44%
    13:00 +24°C° 0.1 mm 3 mps 754 mmHg 43%
    14:00 +25°C° 0.1 mm 3 mps 754 mmHg 42%
    15:00 +25°C° 0 mm 4 mps 753 mmHg 43%
    16:00 +23°C° 0.2 mm 4 mps 753 mmHg 47%
    17:00 +22°C° 0.2 mm 4 mps 753 mmHg 51%
    18:00 +21°C° 0.2 mm 3 mps 754 mmHg 54%
    19:00 +19°C° 0.1 mm 3 mps 754 mmHg 58%
    20:00 +18°C° 0.1 mm 3 mps 754 mmHg 63%
    21:00 +16°C° 0.1 mm 2 mps 754 mmHg 67%
    22:00 +15°C° 0 mm 2 mps 754 mmHg 69%
    23:00 +14°C° 0 mm 1 mps 754 mmHg 72%

    Tomorrow, 30 April, Sunday

    Time Temperature Precipitation Wind Pressure Humidity
    00:00 +13°C° 0 mm 1 mps 754 mmHg 75%
    01:00 +13°C° 0 mm 1 mps 754 mmHg 76%
    02:00 +13°C° 0 mm 1 mps 754 mmHg 77%
    03:00 +12°C° 0 mm 1 mps 754 mmHg 77%
    04:00 +13°C° 0 mm 1 mps 754 mmHg 75%
    05:00 +14°C° 0 mm 2 mps 754 mmHg 72%
    06:00 +15°C° 0 mm 2 mps 754 mmHg 69%
    07:00 +17°C° 0 mm 2 mps 754 mmHg 61%
    08:00 +20°C° 0 mm 3 mps 754 mmHg 53%
    09:00 +22°C° 0 mm 3 mps 753 mmHg 45%
    10:00 +24°C° 0 mm 3 mps 753 mmHg 42%
    11:00 +25°C° 0 mm 2 mps 753 mmHg 40%
    12:00 +27°C° 0 mm 2 mps 752 mmHg 37%
    13:00 +27°C° 0 mm 2 mps 752 mmHg 36%
    14:00 +28°C° 0 mm 1 mps 752 mmHg 35%
    15:00 +28°C° 0 mm 1 mps 751 mmHg 34%
    16:00 +27°C° 0 mm 1 mps 751 mmHg 39%
    17:00 +26°C° 0 mm 1 mps 752 mmHg 44%
    18:00 +25°C° 0 mm 1 mps 752 mmHg 49%
    19:00 +23°C° 0 mm 1 mps 752 mmHg 50%
    20:00 +21°C° 0 mm 1 mps 752 mmHg 51%
    21:00 +18°C° 0 mm 2 mps 753 mmHg 51%
    22:00 +19°C° 0.1 mm 1 mps 753 mmHg 52%
    23:00 +18°C° 0.1 mm 1 mps 753 mmHg 54%

    Day after tomorrow, 1 May, Monday

    Time Temperature Precipitation Wind Pressure Humidity
    00:00 +16°C° 0.1 mm 1 mps 753 mmHg 55%
    01:00 +16°C° 0 mm 1 mps 753 mmHg 56%
    02:00 +15°C° 0 mm 1 mps 753 mmHg 57%
    03:00 +15°C° 0 mm 1 mps 753 mmHg 58%
    04:00 +16°C° 0 mm 2 mps 753 mmHg 55%
    05:00 +17°C° 0 mm 2 mps 753 mmHg 53%
    06:00 +18°C° 0 mm 2 mps 753 mmHg 50%
    07:00 +20°C° 0 mm 2 mps 753 mmHg 43%
    08:00 +23°C° 0 mm 2 mps 753 mmHg 37%
    09:00 +26°C° 0 mm 3 mps 753 mmHg 30%
    10:00 +27°C° 0 mm 2 mps 753 mmHg 29%
    11:00 +28°C° 0 mm 2 mps 753 mmHg 28%
    12:00 +29°C° 0 mm 2 mps 752 mmHg 27%
    13:00 +30°C° 0 mm 1 mps 752 mmHg 27%
    14:00 +30°C° 0 mm 1 mps 752 mmHg 27%
    15:00 +31°C° 0 mm 1 mps 751 mmHg 27%
    16:00 +30°C° 0 mm 1 mps 752 mmHg 31%
    17:00 +28°C° 0 mm 1 mps 752 mmHg 36%
    18:00 +27°C° 0 mm 1 mps 752 mmHg 41%
    19:00 +25°C° 0 mm 1 mps 752 mmHg 43%
    20:00 +23°C° 0 mm 2 mps 753 mmHg 46%
    21:00 +20°C° 0 mm 2 mps 754 mmHg 48%
    22:00 +19°C° 0 mm 2 mps 754 mmHg 51%
    23:00 +19°C° 0 mm 2 mps 753 mmHg 53%

    2 May, Tuesday

    Time Temperature Precipitation Wind Pressure Humidity
    00:00 +18°C° 0 mm 2 mps 753 mmHg 56%
    01:00 +19°C° 0 mm 1 mps 753 mmHg 57%
    02:00 +18°C° 0 mm 1 mps 753 mmHg 59%
    03:00 +18°C° 0 mm 1 mps 753 mmHg 60%
    04:00 +18°C° 0 mm 1 mps 753 mmHg 59%
    05:00 +17°C° 0 mm 0 mps 753 mmHg 59%
    06:00 +18°C° 0 mm 0 mps 753 mmHg 59%
    07:00 +22°C° 0 mm 1 mps 753 mmHg 51%
    08:00 +24°C° 0 mm 1 mps 753 mmHg 43%
    09:00 +25°C° 0 mm 1 mps 753 mmHg 36%
    10:00 +27°C° 0 mm 2 mps 753 mmHg 34%
    11:00 +28°C° 0 mm 2 mps 753 mmHg 32%
    12:00 +29°C° 0 mm 2 mps 752 mmHg 30%
    13:00 +29°C° 0 mm 2 mps 752 mmHg 29%
    14:00 +29°C° 0 mm 2 mps 752 mmHg 29%
    15:00 +30°C° 0 mm 2 mps 751 mmHg 29%
    16:00 +29°C° 0 mm 2 mps 751 mmHg 33%
    17:00 +28°C° 0 mm 2 mps 751 mmHg 37%
    18:00 +27°C° 0 mm 2 mps 752 mmHg 41%
    19:00 +25°C° 0 mm 2 mps 752 mmHg 43%
    20:00 +23°C° 0 mm 2 mps 752 mmHg 46%
    21:00 +20°C° 0 mm 2 mps 752 mmHg 49%
    22:00 +20°C° 0 mm 1 mps 752 mmHg 50%
    23:00 +19°C° 0 mm 1 mps 752 mmHg 51%

    3 May, Wednesday

    Time Temperature Precipitation Wind Pressure Humidity
    00:00 +19°C° 0 mm 1 mps 751 mmHg 52%
    01:00 +19°C° 0 mm 1 mps 751 mmHg 53%
    02:00 +19°C° 0 mm 1 mps 751 mmHg 53%
    03:00 +19°C° 0 mm 1 mps 751 mmHg 53%
    04:00 +19°C° 0.1 mm 1 mps 751 mmHg 53%
    05:00 +19°C° 0.1 mm 2 mps 751 mmHg 52%
    06:00 +19°C° 0.1 mm 2 mps 751 mmHg 51%
    07:00 +21°C° 0 mm 3 mps 751 mmHg 47%
    08:00 +24°C° 0 mm 3 mps 751 mmHg 43%
    09:00 +25°C° 0 mm 4 mps 750 mmHg 39%
    10:00 +26°C° 0.1 mm 4 mps 750 mmHg 37%
    11:00 +28°C° 0.1 mm 3 mps 750 mmHg 34%
    12:00 +29°C° 0.1 mm 3 mps 749 mmHg 32%
    13:00 +29°C° 0.2 mm 3 mps 749 mmHg 32%
    14:00 +30°C° 0.2 mm 3 mps 748 mmHg 33%
    15:00 +30°C° 0.2 mm 2 mps 748 mmHg 33%
    16:00 +29°C° 0.1 mm 2 mps 748 mmHg 37%
    17:00 +28°C° 0.1 mm 2 mps 748 mmHg 41%
    18:00 +27°C° 0.1 mm 2 mps 748 mmHg 45%
    19:00 +25°C° 0.4 mm 2 mps 748 mmHg 49%
    20:00 +23°C° 0.4 mm 2 mps 749 mmHg 54%
    21:00 +20°C° 0.4 mm 2 mps 749 mmHg 59%
    22:00 +19°C° 0.4 mm 2 mps 749 mmHg 59%
    23:00 +19°C° 0.4 mm 2 mps 749 mmHg 60%

    4 May, Thursday

    Time Temperature Precipitation Wind Pressure Humidity
    00:00 +19°C° 0.4 mm 2 mps 749 mmHg 60%
    01:00 +18°C° 0 mm 2 mps 749 mmHg 60%
    02:00 +18°C° 0 mm 2 mps 749 mmHg 59%
    03:00 +18°C° 0 mm 2 mps 748 mmHg 59%
    04:00 +18°C° 0 mm 2 mps 749 mmHg 59%
    05:00 +19°C° 0 mm 2 mps 749 mmHg 59%
    06:00 +19°C° 0 mm 2 mps 749 mmHg 59%
    07:00 +21°C° 0 mm 3 mps 749 mmHg 54%
    08:00 +24°C° 0 mm 3 mps 749 mmHg 48%
    09:00 +26°C° 0 mm 4 mps 749 mmHg 43%
    10:00 +27°C° 0.1 mm 3 mps 749 mmHg 42%
    11:00 +28°C° 0.1 mm 3 mps 749 mmHg 40%
    12:00 +29°C° 0.1 mm 3 mps 748 mmHg 38%
    13:00 +29°C° 0.1 mm 3 mps 748 mmHg 37%
    14:00 +29°C° 0.1 mm 2 mps 748 mmHg 37%
    15:00 +30°C° 0.1 mm 2 mps 748 mmHg 36%
    16:00 +29°C° 0 mm 2 mps 748 mmHg 41%
    17:00 +28°C° 0 mm 1 mps 748 mmHg 45%
    18:00 +27°C° 0 mm 1 mps 749 mmHg 50%
    19:00 +25°C° 0.2 mm 1 mps 749 mmHg 53%
    20:00 +23°C° 0.2 mm 2 mps 749 mmHg 56%
    21:00 +20°C° 0.2 mm 2 mps 750 mmHg 59%
    22:00 +19°C° 0.1 mm 2 mps 750 mmHg 62%
    23:00 +19°C° 0.1 mm 2 mps 750 mmHg 66%
    Show more